Time,TemperatureF,DewpointF,PressureIn,WindDirection,WindDirectionDegrees,WindSpeedMPH,WindSpeedGustMPH,Humidity,HourlyPrecipIn,Conditions,Clouds,dailyrainin,SoftwareType,DateUTC
2013-07-30 00:01:00,63.1,54.3,30.05,WNW,288,0.0,0.0,73,0.00,RA,,0.00,WeatherDisplay:10.37,2013-07-30 04:01:00,
2013-07-30 00:03:00,63.1,54.3,30.05,WNW,288,0.0,0.0,73,0.00,RA,,0.00,WeatherDisplay:10.37,2013-07-30 04:03:00,
2013-07-30 00:04:00,63.1,54.3,30.05,WNW,288,0.0,0.0,73,0.00,RA,,0.00,WeatherDisplay:10.37,2013-07-30 04:04:00,
2013-07-30 00:09:00,62.7,54.3,30.05,WNW,288,0.0,0.0,74,0.00,RA,,0.00,WeatherDisplay:10.37,2013-07-30 04:09:00,
2013-07-30 00:14:00,62.6,54.2,30.05,WNW,288,0.0,0.0,74,0.00,CLR,,0.00,WeatherDisplay:10.37,2013-07-30 04:14:00,
2013-07-30 00:19:00,62.4,54.4,30.05,WNW,288,0.0,0.0,75,0.00,CLR,,0.00,WeatherDisplay:10.37,2013-07-30 04:19:00,
2013-07-30 00:25:00,62.4,54.4,30.05,WNW,288,0.0,0.0,75,0.00,CLR,,0.00,WeatherDisplay:10.37,2013-07-30 04:25:00,
2013-07-30 00:30:00,62.3,53.9,30.05,WNW,288,0.0,0.0,74,0.00,CLR,,0.00,WeatherDisplay:10.37,2013-07-30 04:30:00,
2013-07-30 00:35:00,62.3,54.3,30.05,WNW,288,0.0,0.0,75,0.00,CLR,,0.00,WeatherDisplay:10.37,2013-07-30 04:35:00,
2013-07-30 00:40:00,61.8,54.9,30.05,WNW,288,0.0,0.0,78,0.00,CLR,,0.00,WeatherDisplay:10.37,2013-07-30 04:40:00,
2013-07-30 00:45:00,61.0,55.1,30.06,WNW,288,0.0,0.0,81,0.00,CLR,,0.00,WeatherDisplay:10.37,2013-07-30 04:45:00,
2013-07-30 00:50:00,60.4,55.2,30.06,WNW,288,0.0,0.0,83,0.00,CLR,,0.00,WeatherDisplay:10.37,2013-07-30 04:50:00,
2013-07-30 00:55:00,59.9,55.1,30.05,WNW,288,0.0,0.0,84,0.00,CLR,,0.00,WeatherDisplay:10.37,2013-07-30 04:55:00,
2013-07-30 01:01:00,59.9,54.7,30.05,WNW,288,0.0,0.0,83,0.00,CLR,,0.00,WeatherDisplay:10.37,2013-07-30 05:01:00,
2013-07-30 01:06:00,60.1,54.9,30.05,WNW,288,0.0,0.0,83,0.00,CLR,,0.00,WeatherDisplay:10.37,2013-07-30 05:06:00,
2013-07-30 01:11:00,59.9,54.7,30.06,WNW,288,0.0,0.0,83,0.00,CLR,,0.00,WeatherDisplay:10.37,2013-07-30 05:11:00,
2013-07-30 01:16:00,59.9,54.7,30.06,WNW,288,0.0,0.0,83,0.00,CLR,,0.00,WeatherDisplay:10.37,2013-07-30 05:16:00,
2013-07-30 01:21:00,59.9,54.7,30.06,WNW,288,0.0,0.0,83,0.00,CLR,,0.00,WeatherDisplay:10.37,2013-07-30 05:21:00,
2013-07-30 01:26:00,60.1,54.6,30.06,WNW,288,0.0,0.0,82,0.00,CLR,,0.00,WeatherDisplay:10.37,2013-07-30 05:26:00,
2013-07-30 01:32:00,60.2,54.3,30.06,WNW,288,0.0,0.0,81,0.00,CLR,,0.00,WeatherDisplay:10.37,2013-07-30 05:32:00,
2013-07-30 01:37:00,60.5,54.3,30.06,WNW,288,0.0,0.0,80,0.00,CLR,,0.00,WeatherDisplay:10.37,2013-07-30 05:37:00,
2013-07-30 01:42:00,60.5,54.3,30.06,WNW,288,0.0,0.0,80,0.00,CLR,,0.00,WeatherDisplay:10.37,2013-07-30 05:42:00,
2013-07-30 01:47:00,60.4,54.5,30.06,WNW,288,0.0,0.0,81,0.00,CLR,,0.00,WeatherDisplay:10.37,2013-07-30 05:47:00,
2013-07-30 01:52:00,59.8,54.3,30.06,WNW,288,0.0,0.0,82,0.00,CLR,,0.00,WeatherDisplay:10.37,2013-07-30 05:52:00,
2013-07-30 01:58:00,59.3,54.1,30.06,WNW,288,0.0,0.0,83,0.00,CLR,,0.00,WeatherDisplay:10.37,2013-07-30 05:58:00,
2013-07-30 02:03:00,59.2,54.4,30.06,WNW,288,0.0,0.0,84,0.00,CLR,,0.00,WeatherDisplay:10.37,2013-07-30 06:03:00,
2013-07-30 02:08:00,59.0,54.2,30.06,WNW,288,0.0,0.0,84,0.00,CLR,,0.00,WeatherDisplay:10.37,2013-07-30 06:08:00,
2013-07-30 02:13:00,58.7,54.2,30.06,WNW,288,0.0,0.0,85,0.00,CLR,,0.00,WeatherDisplay:10.37,2013-07-30 06:13:00,
2013-07-30 02:18:00,58.6,54.1,30.06,WNW,288,0.0,0.0,85,0.00,CLR,,0.00,WeatherDisplay:10.37,2013-07-30 06:18:00,
2013-07-30 02:23:00,58.4,54.2,30.06,WNW,288,0.0,0.0,86,0.00,CLR,,0.00,WeatherDisplay:10.37,2013-07-30 06:23:00,
2013-07-30 02:28:00,58.3,54.4,30.06,WNW,288,0.0,0.0,87,0.00,CLR,,0.00,WeatherDisplay:10.37,2013-07-30 06:28:00,
2013-07-30 02:33:00,58.1,54.6,30.06,WNW,288,0.0,0.0,88,0.00,CLR,,0.00,WeatherDisplay:10.37,2013-07-30 06:33:00,
2013-07-30 02:39:00,57.8,54.3,30.06,WNW,288,0.0,0.0,88,0.00,CLR,,0.00,WeatherDisplay:10.37,2013-07-30 06:39:00,
2013-07-30 02:44:00,58.0,54.8,30.06,WNW,288,0.0,0.0,89,0.00,CLR,,0.00,WeatherDisplay:10.37,2013-07-30 06:44:00,
2013-07-30 02:49:00,58.1,54.9,30.06,WNW,288,0.0,0.0,89,0.00,CLR,,0.00,WeatherDisplay:10.37,2013-07-30 06:49:00,
2013-07-30 02:54:00,58.1,54.6,30.06,WNW,289,0.0,0.0,88,0.00,CLR,,0.00,WeatherDisplay:10.37,2013-07-30 06:54:00,
2013-07-30 03:00:00,58.1,54.6,30.06,WNW,289,0.0,0.0,88,0.00,CLR,,0.00,WeatherDisplay:10.37,2013-07-30 07:00:00,
2013-07-30 03:05:00,57.8,54.3,30.06,WNW,289,0.0,0.0,88,0.00,CLR,,0.00,WeatherDisplay:10.37,2013-07-30 07:05:00,
2013-07-30 03:10:00,57.5,54.3,30.06,WNW,289,0.0,0.0,89,0.00,CLR,,0.00,WeatherDisplay:10.37,2013-07-30 07:10:00,
2013-07-30 03:15:00,57.3,54.1,30.06,WNW,289,0.0,0.0,89,0.00,CLR,,0.00,WeatherDisplay:10.37,2013-07-30 07:15:00,
2013-07-30 03:20:00,57.2,54.3,30.06,WNW,289,0.0,0.0,90,0.00,CLR,,0.00,WeatherDisplay:10.37,2013-07-30 07:20:00,
2013-07-30 03:25:00,57.5,54.9,30.06,WNW,289,0.0,0.0,91,0.00,CLR,,0.00,WeatherDisplay:10.37,2013-07-30 07:25:00,
2013-07-30 03:30:00,57.3,54.7,30.06,WNW,289,0.0,0.0,91,0.00,CLR,,0.00,WeatherDisplay:10.37,2013-07-30 07:30:00,
2013-07-30 03:36:00,57.3,54.7,30.06,WNW,289,0.0,0.0,91,0.00,CLR,,0.00,WeatherDisplay:10.37,2013-07-30 07:36:00,
2013-07-30 03:41:00,57.2,54.6,30.06,WNW,289,0.0,0.0,91,0.00,CLR,,0.00,WeatherDisplay:10.37,2013-07-30 07:41:00,
2013-07-30 03:46:00,57.0,54.4,30.06,WNW,289,0.0,0.0,91,0.00,CLR,,0.00,WeatherDisplay:10.37,2013-07-30 07:46:00,
2013-07-30 03:52:00,56.9,54.3,30.06,WNW,289,0.0,0.0,91,0.00,CLR,,0.00,WeatherDisplay:10.37,2013-07-30 07:52:00,
2013-07-30 03:57:00,56.9,54.3,30.06,WNW,289,0.0,0.0,91,0.00,CLR,,0.00,WeatherDisplay:10.37,2013-07-30 07:57:00,
2013-07-30 04:03:00,56.7,54.1,30.06,WNW,289,0.0,0.0,91,0.00,CLR,,0.00,WeatherDisplay:10.37,2013-07-30 08:03:00,
2013-07-30 04:08:00,56.6,54.0,30.06,WNW,289,0.0,0.0,91,0.00,CLR,,0.00,WeatherDisplay:10.37,2013-07-30 08:08:00,
2013-07-30 04:13:00,56.6,54.3,30.06,WNW,289,0.0,0.0,92,0.00,CLR,,0.00,WeatherDisplay:10.37,2013-07-30 08:13:00,
2013-07-30 04:19:00,56.6,54.3,30.06,WNW,289,0.0,0.0,92,0.00,CLR,,0.00,WeatherDisplay:10.37,2013-07-30 08:19:00,
2013-07-30 04:24:00,56.6,54.3,30.06,WNW,289,0.0,0.0,92,0.00,CLR,,0.00,WeatherDisplay:10.37,2013-07-30 08:24:00,
2013-07-30 04:29:00,56.5,54.2,30.06,WNW,289,0.0,0.0,92,0.00,CLR,,0.00,WeatherDisplay:10.37,2013-07-30 08:29:00,
2013-07-30 04:34:00,56.3,54.0,30.07,WNW,291,0.0,0.0,92,0.00,CLR,,0.00,WeatherDisplay:10.37,2013-07-30 08:34:00,
2013-07-30 04:39:00,56.3,54.0,30.07,WNW,291,0.0,0.0,92,0.00,CLR,,0.00,WeatherDisplay:10.37,2013-07-30 08:39:00,
2013-07-30 04:44:00,56.2,53.9,30.07,WNW,291,0.0,0.0,92,0.00,CLR,,0.00,WeatherDisplay:10.37,2013-07-30 08:44:00,
2013-07-30 04:49:00,55.9,53.6,30.07,WNW,291,0.0,0.0,92,0.00,CLR,,0.00,WeatherDisplay:10.37,2013-07-30 08:49:00,
2013-07-30 04:55:00,55.9,53.6,30.07,WNW,291,0.0,0.0,92,0.00,CLR,,0.00,WeatherDisplay:10.37,2013-07-30 08:55:00,
2013-07-30 05:00:00,56.0,54.0,30.07,WNW,291,0.0,0.0,93,0.00,CLR,,0.00,WeatherDisplay:10.37,2013-07-30 09:00:00,
2013-07-30 05:05:00,56.0,54.0,30.07,WNW,291,0.0,0.0,93,0.00,CLR,,0.00,WeatherDisplay:10.37,2013-07-30 09:05:00,
2013-07-30 05:10:00,56.3,54.3,30.07,WNW,291,0.0,0.0,93,0.00,CLR,,0.00,WeatherDisplay:10.37,2013-07-30 09:10:00,
2013-07-30 05:15:00,56.5,54.5,30.08,WNW,291,0.0,0.0,93,0.00,CLR,,0.00,WeatherDisplay:10.37,2013-07-30 09:15:00,
2013-07-30 05:20:00,56.2,54.2,30.08,WNW,291,0.0,0.0,93,0.00,CLR,,0.00,WeatherDisplay:10.37,2013-07-30 09:20:00,
2013-07-30 05:25:00,56.0,54.0,30.08,WNW,291,0.0,0.0,93,0.00,CLR,,0.00,WeatherDisplay:10.37,2013-07-30 09:25:00,
2013-07-30 05:31:00,56.0,54.0,30.08,WNW,291,0.0,0.0,93,0.00,CLR,,0.00,WeatherDisplay:10.37,2013-07-30 09:31:00,
2013-07-30 05:36:00,55.9,53.9,30.08,WNW,291,0.0,0.0,93,0.00,CLR,,0.00,WeatherDisplay:10.37,2013-07-30 09:36:00,
2013-07-30 05:41:00,55.7,54.0,30.09,WNW,291,0.0,0.0,94,0.00,CLR,,0.00,WeatherDisplay:10.37,2013-07-30 09:41:00,
2013-07-30 05:46:00,55.6,53.6,30.09,WNW,291,0.0,0.0,93,0.00,CLR,,0.00,WeatherDisplay:10.37,2013-07-30 09:46:00,
2013-07-30 05:51:00,55.4,53.7,30.09,WNW,291,0.0,0.0,94,0.00,CLR,,0.00,WeatherDisplay:10.37,2013-07-30 09:51:00,
2013-07-30 05:56:00,55.6,53.9,30.10,WNW,291,0.0,0.0,94,0.00,CLR,,0.00,WeatherDisplay:10.37,2013-07-30 09:56:00,
2013-07-30 06:01:00,55.7,54.0,30.10,WNW,291,0.0,0.0,94,0.00,CLR,,0.00,WeatherDisplay:10.37,2013-07-30 10:01:00,
2013-07-30 06:07:00,55.9,54.2,30.10,WNW,291,0.0,0.0,94,0.00,CLR,,0.00,WeatherDisplay:10.37,2013-07-30 10:07:00,
2013-07-30 06:12:00,55.6,53.9,30.10,WNW,291,0.0,0.0,94,0.00,CLR,,0.00,WeatherDisplay:10.37,2013-07-30 10:12:00,
2013-07-30 06:17:00,55.4,53.7,30.10,WNW,291,0.0,0.0,94,0.00,CLR,,0.00,WeatherDisplay:10.37,2013-07-30 10:17:00,
2013-07-30 06:22:00,55.4,53.7,30.10,WNW,291,0.0,0.0,94,0.00,CLR,,0.00,WeatherDisplay:10.37,2013-07-30 10:22:00,
2013-07-30 06:27:00,55.9,54.5,30.10,NW,326,0.0,0.0,95,0.00,CLR,,0.00,WeatherDisplay:10.37,2013-07-30 10:27:00,
2013-07-30 06:32:00,55.9,54.5,30.10,NNW,329,0.0,0.0,95,0.00,CLR,,0.00,WeatherDisplay:10.37,2013-07-30 10:32:00,
2013-07-30 06:38:00,56.0,54.6,30.10,NNW,329,0.0,0.0,95,0.00,CLR,,0.00,WeatherDisplay:10.37,2013-07-30 10:38:00,
2013-07-30 06:43:00,56.2,54.8,30.10,NNW,340,0.0,0.0,95,0.00,CLR,,0.00,WeatherDisplay:10.37,2013-07-30 10:43:00,
2013-07-30 06:48:00,56.5,55.1,30.10,SSW,202,0.0,0.0,95,0.00,CLR,,0.00,WeatherDisplay:10.37,2013-07-30 10:48:00,
2013-07-30 06:53:00,56.5,55.1,30.10,SSW,202,0.0,0.0,95,0.00,CLR,,0.00,WeatherDisplay:10.37,2013-07-30 10:53:00,
2013-07-30 06:59:00,56.7,55.3,30.10,SSW,202,0.0,0.0,95,0.00,CLR,,0.00,WeatherDisplay:10.37,2013-07-30 10:59:00,
2013-07-30 07:04:00,57.2,55.8,30.10,SSW,202,0.0,0.0,95,0.00,CLR,,0.00,WeatherDisplay:10.37,2013-07-30 11:04:00,
2013-07-30 07:09:00,57.2,55.5,30.11,SSW,202,0.0,0.0,94,0.00,CLR,,0.00,WeatherDisplay:10.37,2013-07-30 11:09:00,
2013-07-30 07:14:00,57.5,55.8,30.11,SSW,202,0.0,0.0,94,0.00,CLR,,0.00,WeatherDisplay:10.37,2013-07-30 11:14:00,
2013-07-30 07:19:00,57.6,55.9,30.11,SSW,202,0.0,0.0,94,0.00,CLR,,0.00,WeatherDisplay:10.37,2013-07-30 11:19:00,
2013-07-30 07:24:00,57.8,56.1,30.11,SSW,202,0.0,0.0,94,0.00,CLR,,0.00,WeatherDisplay:10.37,2013-07-30 11:24:00,
2013-07-30 07:29:00,58.1,56.4,30.11,SSW,202,0.0,0.0,94,0.00,CLR,,0.00,WeatherDisplay:10.37,2013-07-30 11:29:00,
2013-07-30 07:34:00,58.6,56.9,30.11,SSW,202,0.0,0.0,94,0.00,CLR,,0.00,WeatherDisplay:10.37,2013-07-30 11:34:00,
2013-07-30 07:39:00,59.0,57.3,30.11,SSW,202,0.0,0.0,94,0.00,CLR,,0.00,WeatherDisplay:10.37,2013-07-30 11:39:00,
2013-07-30 07:45:00,59.8,58.4,30.11,SSW,202,0.0,0.0,95,0.00,CLR,,0.00,WeatherDisplay:10.37,2013-07-30 11:45:00,
2013-07-30 07:50:00,60.1,58.4,30.11,SSW,202,0.0,0.0,94,0.00,CLR,,0.00,WeatherDisplay:10.37,2013-07-30 11:50:00,
2013-07-30 07:55:00,59.9,57.9,30.11,SSW,202,0.0,0.0,93,0.00,CLR,,0.00,WeatherDisplay:10.37,2013-07-30 11:55:00,
2013-07-30 08:00:00,60.1,57.8,30.11,SSW,202,0.0,0.0,92,0.00,CLR,,0.00,WeatherDisplay:10.37,2013-07-30 12:00:00,
2013-07-30 08:05:00,60.4,58.1,30.12,SSW,202,0.0,0.0,92,0.00,CLR,,0.00,WeatherDisplay:10.37,2013-07-30 12:05:00,
2013-07-30 08:10:00,61.0,58.4,30.12,SSW,202,0.0,0.0,91,0.00,CLR,,0.00,WeatherDisplay:10.37,2013-07-30 12:10:00,
2013-07-30 08:15:00,61.3,58.3,30.12,SSW,202,0.0,0.0,90,0.00,CLR,,0.00,WeatherDisplay:10.37,2013-07-30 12:15:00,
2013-07-30 08:20:00,61.8,58.5,30.12,SSW,202,0.0,0.0,89,0.00,CLR,,0.00,WeatherDisplay:10.37,2013-07-30 12:20:00,
2013-07-30 08:25:00,62.3,58.7,30.12,SSW,202,0.0,0.0,88,0.00,CLR,,0.00,WeatherDisplay:10.37,2013-07-30 12:25:00,
2013-07-30 08:31:00,62.9,59.0,30.12,SSW,202,0.0,0.0,87,0.00,CLR,,0.00,WeatherDisplay:10.37,2013-07-30 12:31:00,
2013-07-30 08:36:00,63.1,58.8,30.12,SSW,202,0.0,0.0,86,0.00,CLR,,0.00,WeatherDisplay:10.37,2013-07-30 12:36:00,
2013-07-30 08:41:00,63.9,59.3,30.13,SSW,202,0.0,0.0,85,0.00,CLR,,0.00,WeatherDisplay:10.37,2013-07-30 12:41:00,
2013-07-30 08:47:00,64.2,58.9,30.13,SSW,199,0.0,0.0,83,0.00,CLR,,0.00,WeatherDisplay:10.37,2013-07-30 12:47:00,
2013-07-30 08:52:00,64.7,59.4,30.13,SSW,199,0.0,0.0,83,0.00,CLR,,0.00,WeatherDisplay:10.37,2013-07-30 12:52:00,
2013-07-30 08:57:00,65.3,59.3,30.12,SSE,150,0.0,0.0,81,0.00,CLR,,0.00,WeatherDisplay:10.37,2013-07-30 12:57:00,
2013-07-30 09:02:00,66.0,60.0,30.12,SSE,150,0.0,0.0,81,0.00,CLR,,0.00,WeatherDisplay:10.37,2013-07-30 13:02:00,
2013-07-30 09:07:00,66.6,58.8,30.12,WNW,285,0.0,0.0,76,0.00,CLR,,0.00,WeatherDisplay:10.37,2013-07-30 13:07:00,
2013-07-30 09:12:00,67.1,57.8,30.12,NNW,332,0.0,0.0,72,0.00,CLR,,0.00,WeatherDisplay:10.37,2013-07-30 13:12:00,
2013-07-30 09:18:00,67.6,58.6,30.12,NNW,337,0.2,1.2,73,0.00,CLR,,0.00,WeatherDisplay:10.37,2013-07-30 13:18:00,
2013-07-30 09:23:00,67.6,57.5,30.12,North,8,0.0,0.0,70,0.00,CLR,,0.00,WeatherDisplay:10.37,2013-07-30 13:23:00,
2013-07-30 09:28:00,67.6,57.5,30.11,WNW,289,1.1,3.5,70,0.00,CLR,,0.00,WeatherDisplay:10.37,2013-07-30 13:28:00,
2013-07-30 09:33:00,67.8,57.7,30.11,NW,313,0.1,2.3,70,0.00,CLR,,0.00,WeatherDisplay:10.37,2013-07-30 13:33:00,
2013-07-30 09:38:00,67.9,56.1,30.11,North,0,4.2,10.4,66,0.00,CLR,,0.00,WeatherDisplay:10.37,2013-07-30 13:38:00,
2013-07-30 09:43:00,68.1,57.1,30.11,WNW,301,0.1,2.3,68,0.00,CLR,,0.00,WeatherDisplay:10.37,2013-07-30 13:43:00,
2013-07-30 09:49:00,68.4,57.4,30.11,NW,323,0.5,6.9,68,0.00,CLR,,0.00,WeatherDisplay:10.37,2013-07-30 13:49:00,
2013-07-30 09:54:00,68.8,57.4,30.11,NW,313,0.3,1.2,67,0.00,CLR,,0.00,WeatherDisplay:10.37,2013-07-30 13:54:00,
2013-07-30 09:59:00,69.1,57.7,30.11,NNW,340,0.1,2.3,67,0.00,CLR,,0.00,WeatherDisplay:10.37,2013-07-30 13:59:00,
2013-07-30 10:04:00,69.4,58.0,30.11,North,352,0.1,4.6,67,0.00,CLR,,0.00,WeatherDisplay:10.37,2013-07-30 14:04:00,
2013-07-30 10:09:00,69.6,58.2,30.11,WNW,298,0.1,2.3,67,0.00,CLR,,0.00,WeatherDisplay:10.37,2013-07-30 14:09:00,
2013-07-30 10:14:00,69.8,57.5,30.11,North,0,0.0,0.0,65,0.00,CLR,,0.00,WeatherDisplay:10.37,2013-07-30 14:14:00,
2013-07-30 10:20:00,69.8,56.6,30.11,NW,315,0.9,3.5,63,0.00,CLR,,0.00,WeatherDisplay:10.37,2013-07-30 14:20:00,
2013-07-30 10:25:00,70.1,57.4,30.11,WNW,294,0.6,3.5,64,0.00,CLR,,0.00,WeatherDisplay:10.37,2013-07-30 14:25:00,
2013-07-30 10:30:00,70.4,57.2,30.11,WNW,296,3.1,6.9,63,0.00,CLR,,0.00,WeatherDisplay:10.37,2013-07-30 14:30:00,
2013-07-30 10:35:00,70.3,56.7,30.11,NW,312,1.0,3.5,62,0.00,CLR,,0.00,WeatherDisplay:10.37,2013-07-30 14:35:00,
2013-07-30 10:40:00,70.4,56.8,30.11,WSW,248,3.9,6.9,62,0.00,CLR,,0.00,WeatherDisplay:10.37,2013-07-30 14:40:00,
2013-07-30 10:45:00,70.6,58.3,30.11,NW,306,0.0,0.0,65,0.00,CLR,,0.00,WeatherDisplay:10.37,2013-07-30 14:45:00,
2013-07-30 10:50:00,71.3,58.9,30.11,NW,305,0.0,0.0,65,0.00,CLR,,0.00,WeatherDisplay:10.37,2013-07-30 14:50:00,
2013-07-30 10:55:00,71.6,58.3,30.11,NW,323,0.4,2.3,63,0.00,CLR,,0.00,WeatherDisplay:10.37,2013-07-30 14:55:00,
2013-07-30 11:00:00,72.0,58.3,30.11,NW,320,0.0,0.0,62,0.00,CLR,,0.00,WeatherDisplay:10.37,2013-07-30 15:00:00,
2013-07-30 11:06:00,72.3,58.5,30.11,NW,316,0.0,0.0,62,0.00,CLR,,0.00,WeatherDisplay:10.37,2013-07-30 15:06:00,
2013-07-30 11:11:00,72.7,58.0,30.11,SW,230,1.1,4.6,60,0.00,CLR,,0.00,WeatherDisplay:10.37,2013-07-30 15:11:00,
2013-07-30 11:17:00,73.0,59.7,30.10,NW,325,1.3,4.6,63,0.00,CLR,,0.00,WeatherDisplay:10.37,2013-07-30 15:17:00,
2013-07-30 11:22:00,73.0,58.8,30.11,NNW,344,0.1,3.5,61,0.00,CLR,,0.00,WeatherDisplay:10.37,2013-07-30 15:22:00,
2013-07-30 11:27:00,73.3,58.1,30.10,North,353,0.0,0.0,59,0.00,CLR,,0.00,WeatherDisplay:10.37,2013-07-30 15:27:00,
2013-07-30 11:32:00,73.3,58.6,30.10,WNW,301,1.0,3.0,60,0.00,CLR,,0.00,WeatherDisplay:10.37,2013-07-30 15:32:00,
2013-07-30 11:37:00,72.7,57.5,30.10,WNW,296,1.3,6.9,59,0.00,CLR,,0.00,WeatherDisplay:10.37,2013-07-30 15:37:00,
2013-07-30 11:42:00,72.8,58.6,30.10,WSW,250,0.2,2.3,61,0.00,CLR,,0.00,WeatherDisplay:10.37,2013-07-30 15:42:00,
2013-07-30 11:47:00,73.0,57.8,30.10,NW,326,0.0,0.0,59,0.00,CLR,,0.00,WeatherDisplay:10.37,2013-07-30 15:47:00,
2013-07-30 11:52:00,73.5,57.8,30.09,NW,326,2.5,8.1,58,0.00,CLR,,0.00,WeatherDisplay:10.37,2013-07-30 15:52:00,
2013-07-30 11:57:00,73.5,57.3,30.09,North,0,1.9,3.5,57,0.00,CLR,,0.00,WeatherDisplay:10.37,2013-07-30 15:57:00,
2013-07-30 12:02:00,74.0,58.3,30.10,NNW,347,1.3,6.0,58,0.00,CLR,,0.00,WeatherDisplay:10.37,2013-07-30 16:02:00,
2013-07-30 12:07:00,73.9,57.7,30.10,NW,305,0.6,7.0,57,0.00,CLR,,0.00,WeatherDisplay:10.37,2013-07-30 16:07:00,
2013-07-30 12:13:00,73.3,56.7,30.10,NNW,333,3.7,7.0,56,0.00,CLR,,0.00,WeatherDisplay:10.37,2013-07-30 16:13:00,
2013-07-30 12:18:00,73.2,58.5,30.10,SSE,165,1.1,2.3,60,0.00,CLR,,0.00,WeatherDisplay:10.37,2013-07-30 16:18:00,
2013-07-30 12:23:00,73.0,57.3,30.10,NNW,337,0.9,4.6,58,0.00,CLR,,0.00,WeatherDisplay:10.37,2013-07-30 16:23:00,
2013-07-30 12:28:00,72.3,56.2,30.10,NW,316,0.2,6.9,57,0.00,CLR,,0.00,WeatherDisplay:10.37,2013-07-30 16:28:00,
2013-07-30 12:33:00,72.5,57.4,30.10,NW,313,0.4,3.5,59,0.00,CLR,,0.00,WeatherDisplay:10.37,2013-07-30 16:33:00,
2013-07-30 12:39:00,73.5,56.8,30.10,NW,320,1.2,4.6,56,0.00,CLR,,0.00,WeatherDisplay:10.37,2013-07-30 16:39:00,
2013-07-30 12:44:00,74.0,56.8,30.10,WNW,284,2.2,7.0,55,0.00,CLR,,0.00,WeatherDisplay:10.37,2013-07-30 16:44:00,
2013-07-30 12:49:00,74.7,58.5,30.09,NNW,330,0.8,9.0,57,0.00,CLR,,0.00,WeatherDisplay:10.37,2013-07-30 16:49:00,
2013-07-30 12:54:00,74.9,56.1,30.09,NW,308,2.9,6.0,52,0.00,CLR,,0.00,WeatherDisplay:10.37,2013-07-30 16:54:00,
2013-07-30 12:59:00,74.7,58.9,30.09,North,0,0.1,0.0,58,0.00,CLR,,0.00,WeatherDisplay:10.37,2013-07-30 16:59:00,
2013-07-30 13:05:00,74.6,56.3,30.09,NNW,339,0.1,1.2,53,0.00,CLR,,0.00,WeatherDisplay:10.37,2013-07-30 17:05:00,
2013-07-30 13:10:00,75.1,58.3,30.09,NW,312,0.0,1.2,56,0.00,CLR,,0.00,WeatherDisplay:10.37,2013-07-30 17:10:00,
2013-07-30 13:15:00,75.6,58.3,30.08,North,352,0.1,1.2,55,0.00,CLR,,0.00,WeatherDisplay:10.37,2013-07-30 17:15:00,
2013-07-30 13:20:00,75.6,56.7,30.08,North,350,2.8,3.5,52,0.00,CLR,,0.00,WeatherDisplay:10.37,2013-07-30 17:20:00,
2013-07-30 13:25:00,75.4,56.5,30.08,West,275,1.7,8.1,52,0.00,CLR,,0.00,WeatherDisplay:10.37,2013-07-30 17:25:00,
2013-07-30 13:30:00,75.6,58.3,30.08,NW,305,2.4,5.0,55,0.00,CLR,,0.00,WeatherDisplay:10.37,2013-07-30 17:30:00,
2013-07-30 13:36:00,75.4,57.1,30.08,WNW,299,1.4,5.8,53,0.00,CLR,,0.00,WeatherDisplay:10.37,2013-07-30 17:36:00,
2013-07-30 13:41:00,75.8,58.0,30.08,North,8,0.0,0.0,54,0.00,CLR,,0.00,WeatherDisplay:10.37,2013-07-30 17:41:00,
2013-07-30 13:46:00,75.8,57.4,30.08,NW,316,0.0,1.2,53,0.00,CLR,,0.00,WeatherDisplay:10.37,2013-07-30 17:46:00,
2013-07-30 13:51:00,75.1,57.8,30.08,North,1,0.5,6.9,55,0.00,CLR,,0.00,WeatherDisplay:10.37,2013-07-30 17:51:00,
2013-07-30 13:56:00,74.7,58.0,30.08,WNW,299,0.6,1.2,56,0.00,CLR,,0.00,WeatherDisplay:10.37,2013-07-30 17:56:00,
2013-07-30 14:01:00,74.7,57.5,30.08,NW,309,0.0,1.2,55,0.00,CLR,,0.00,WeatherDisplay:10.37,2013-07-30 18:01:00,
2013-07-30 14:07:00,75.1,56.8,30.08,North,359,0.0,0.0,53,0.00,CLR,,0.00,WeatherDisplay:10.37,2013-07-30 18:07:00,
2013-07-30 14:12:00,76.1,56.1,30.07,North,1,0.1,1.0,50,0.00,CLR,,0.00,WeatherDisplay:10.37,2013-07-30 18:12:00,
2013-07-30 14:17:00,77.0,58.6,30.07,NNW,337,0.0,0.0,53,0.00,CLR,,0.00,WeatherDisplay:10.37,2013-07-30 18:17:00,
2013-07-30 14:22:00,77.0,57.5,30.07,North,352,0.0,1.2,51,0.00,CLR,,0.00,WeatherDisplay:10.37,2013-07-30 18:22:00,
2013-07-30 14:29:00,76.3,57.9,30.07,WNW,287,0.0,1.2,53,0.00,CLR,,0.00,WeatherDisplay:10.37,2013-07-30 18:29:00,
2013-07-30 14:34:00,75.3,58.0,30.07,NNW,343,0.0,0.0,55,0.00,CLR,,0.00,WeatherDisplay:10.37,2013-07-30 18:34:00,
2013-07-30 14:39:00,75.1,56.8,30.07,WNW,288,0.0,0.0,53,0.00,CLR,,0.00,WeatherDisplay:10.37,2013-07-30 18:39:00,
2013-07-30 14:44:00,75.6,56.7,30.07,WSW,258,0.0,0.0,52,0.00,CLR,,0.00,WeatherDisplay:10.37,2013-07-30 18:44:00,
2013-07-30 14:49:00,75.3,57.5,30.07,NW,309,0.0,0.0,54,0.00,CLR,,0.00,WeatherDisplay:10.37,2013-07-30 18:49:00,
2013-07-30 14:54:00,75.6,58.3,30.07,NW,311,0.7,0.0,55,0.00,CLR,,0.00,WeatherDisplay:10.37,2013-07-30 18:54:00,
2013-07-30 14:59:00,76.3,56.8,30.07,West,274,0.0,3.5,51,0.00,CLR,,0.00,WeatherDisplay:10.37,2013-07-30 18:59:00,
2013-07-30 15:04:00,75.8,57.4,30.07,NW,312,0.1,2.3,53,0.00,CLR,,0.00,WeatherDisplay:10.37,2013-07-30 19:04:00,
2013-07-30 15:09:00,75.3,57.5,30.07,NW,312,0.0,0.0,54,0.00,CLR,,0.00,WeatherDisplay:10.37,2013-07-30 19:09:00,
2013-07-30 15:14:00,75.1,56.3,30.07,NNE,32,0.0,3.5,52,0.00,CLR,,0.00,WeatherDisplay:10.37,2013-07-30 19:14:00,
2013-07-30 15:19:00,75.1,59.3,30.07,NW,312,0.1,3.0,58,0.00,CLR,,0.00,WeatherDisplay:10.37,2013-07-30 19:19:00,
2013-07-30 15:25:00,75.1,58.3,30.07,NW,318,0.0,0.0,56,0.00,CLR,,0.00,WeatherDisplay:10.37,2013-07-30 19:25:00,
2013-07-30 15:30:00,74.9,57.1,30.07,North,0,0.0,0.0,54,0.00,CLR,,0.00,WeatherDisplay:10.37,2013-07-30 19:30:00,
2013-07-30 15:35:00,74.9,58.1,30.07,NW,311,0.0,0.0,56,0.00,CLR,,0.00,WeatherDisplay:10.37,2013-07-30 19:35:00,
2013-07-30 15:40:00,75.1,57.3,30.07,West,281,0.0,0.0,54,0.00,CLR,,0.00,WeatherDisplay:10.37,2013-07-30 19:40:00,
2013-07-30 15:45:00,75.8,58.5,30.07,WNW,285,0.0,0.0,55,0.00,CLR,,0.00,WeatherDisplay:10.37,2013-07-30 19:45:00,
2013-07-30 15:50:00,76.5,58.6,30.06,North,349,1.8,5.0,54,0.00,CLR,,0.00,WeatherDisplay:10.37,2013-07-30 19:50:00,
2013-07-30 15:55:00,76.8,58.4,30.07,NNW,333,0.0,0.0,53,0.00,CLR,,0.00,WeatherDisplay:10.37,2013-07-30 19:55:00,
2013-07-30 16:01:00,77.2,57.1,30.06,WNW,294,0.6,3.5,50,0.00,CLR,,0.00,WeatherDisplay:10.37,2013-07-30 20:01:00,
2013-07-30 16:06:00,77.4,56.7,30.06,WNW,302,1.0,6.9,49,0.00,CLR,,0.00,WeatherDisplay:10.37,2013-07-30 20:06:00,
2013-07-30 16:11:00,76.8,56.8,30.06,West,268,1.4,5.8,50,0.00,CLR,,0.00,WeatherDisplay:10.37,2013-07-30 20:11:00,
2013-07-30 16:16:00,76.1,56.1,30.06,WNW,285,0.3,2.3,50,0.00,CLR,,0.00,WeatherDisplay:10.37,2013-07-30 20:16:00,
2013-07-30 16:22:00,76.0,58.7,30.06,WNW,284,0.0,0.0,55,0.00,CLR,,0.00,WeatherDisplay:10.37,2013-07-30 20:22:00,
2013-07-30 16:27:00,76.0,58.2,30.06,WSW,239,0.4,0.0,54,0.00,CLR,,0.00,WeatherDisplay:10.37,2013-07-30 20:27:00,
2013-07-30 16:32:00,76.0,59.2,30.06,WSW,240,0.0,0.0,56,0.00,CLR,,0.00,WeatherDisplay:10.37,2013-07-30 20:32:00,
2013-07-30 16:37:00,76.0,59.7,30.06,WSW,243,0.0,0.0,57,0.00,CLR,,0.00,WeatherDisplay:10.37,2013-07-30 20:37:00,
2013-07-30 16:42:00,75.6,58.8,30.06,WNW,285,0.0,0.0,56,0.00,CLR,,0.00,WeatherDisplay:10.37,2013-07-30 20:42:00,
2013-07-30 16:47:00,75.6,58.3,30.06,West,277,0.0,0.0,55,0.00,CLR,,0.00,WeatherDisplay:10.37,2013-07-30 20:47:00,
2013-07-30 16:52:00,75.6,58.8,30.06,West,261,0.0,0.0,56,0.00,CLR,,0.00,WeatherDisplay:10.37,2013-07-30 20:52:00,
2013-07-30 16:57:00,75.6,57.8,30.06,WNW,292,0.9,6.9,54,0.00,CLR,,0.00,WeatherDisplay:10.37,2013-07-30 20:57:00,
2013-07-30 17:03:00,76.0,57.6,30.06,SW,227,0.2,1.2,53,0.00,CLR,,0.00,WeatherDisplay:10.37,2013-07-30 21:03:00,
2013-07-30 17:08:00,76.5,59.1,30.05,NW,304,0.0,1.2,55,0.00,CLR,,0.00,WeatherDisplay:10.37,2013-07-30 21:08:00,
2013-07-30 17:13:00,76.8,58.4,30.05,NW,315,0.0,0.0,53,0.00,CLR,,0.00,WeatherDisplay:10.37,2013-07-30 21:13:00,
2013-07-30 17:18:00,77.2,57.7,30.05,NNW,335,0.0,0.0,51,0.00,CLR,,0.00,WeatherDisplay:10.37,2013-07-30 21:18:00,
2013-07-30 17:23:00,77.6,57.5,30.05,NNW,342,0.0,0.0,50,0.00,CLR,,0.00,WeatherDisplay:10.37,2013-07-30 21:23:00,
2013-07-30 17:28:00,77.9,58.3,30.05,West,260,0.0,0.0,51,0.00,CLR,,0.00,WeatherDisplay:10.37,2013-07-30 21:28:00,
2013-07-30 17:34:00,78.6,58.4,30.05,West,261,0.0,0.0,50,0.00,CLR,,0.00,WeatherDisplay:10.37,2013-07-30 21:34:00,
2013-07-30 17:39:00,78.3,58.1,30.06,WNW,285,0.5,3.5,50,0.00,CLR,,0.00,WeatherDisplay:10.37,2013-07-30 21:39:00,
2013-07-30 17:44:00,77.9,59.4,30.06,West,277,0.2,2.3,53,0.00,CLR,,0.00,WeatherDisplay:10.37,2013-07-30 21:44:00,
2013-07-30 17:49:00,77.6,59.1,30.06,West,270,0.0,0.0,53,0.00,CLR,,0.00,WeatherDisplay:10.37,2013-07-30 21:49:00,
2013-07-30 17:54:00,76.8,58.9,30.06,SW,224,0.0,0.0,54,0.00,CLR,,0.00,WeatherDisplay:10.37,2013-07-30 21:54:00,
2013-07-30 17:59:00,76.7,58.8,30.06,SSW,209,0.0,2.3,54,0.00,CLR,,0.00,WeatherDisplay:10.37,2013-07-30 21:59:00,
2013-07-30 18:04:00,76.3,58.9,30.06,WSW,253,0.0,0.0,55,0.00,CLR,,0.00,WeatherDisplay:10.37,2013-07-30 22:04:00,
2013-07-30 18:09:00,75.8,59.0,30.06,SSW,209,0.9,4.6,56,0.00,CLR,,0.00,WeatherDisplay:10.37,2013-07-30 22:09:00,
2013-07-30 18:15:00,75.8,60.4,30.06,SSW,213,0.0,0.0,59,0.00,CLR,,0.00,WeatherDisplay:10.37,2013-07-30 22:15:00,
2013-07-30 18:20:00,75.4,58.6,30.07,SW,216,0.0,0.0,56,0.00,CLR,,0.00,WeatherDisplay:10.37,2013-07-30 22:20:00,
2013-07-30 18:25:00,74.9,59.1,30.07,SW,216,0.0,0.0,58,0.00,CLR,,0.00,WeatherDisplay:10.37,2013-07-30 22:25:00,
2013-07-30 18:30:00,74.6,59.8,30.07,SW,216,0.0,0.0,60,0.00,CLR,,0.00,WeatherDisplay:10.37,2013-07-30 22:30:00,
2013-07-30 18:35:00,74.2,60.8,30.07,SW,216,0.0,0.0,63,0.00,CLR,,0.00,WeatherDisplay:10.37,2013-07-30 22:35:00,
2013-07-30 18:41:00,74.0,60.6,30.07,SW,216,0.0,0.0,63,0.00,CLR,,0.00,WeatherDisplay:10.37,2013-07-30 22:41:00,
2013-07-30 18:46:00,73.7,60.8,30.07,SW,216,0.0,0.0,64,0.00,CLR,,0.00,WeatherDisplay:10.37,2013-07-30 22:46:00,
2013-07-30 18:51:00,73.5,60.6,30.07,SW,216,0.0,0.0,64,0.00,CLR,,0.00,WeatherDisplay:10.37,2013-07-30 22:51:00,
2013-07-30 18:56:00,73.5,60.6,30.07,SW,216,0.0,0.0,64,0.00,CLR,,0.00,WeatherDisplay:10.37,2013-07-30 22:56:00,
2013-07-30 19:01:00,73.5,61.0,30.07,SW,216,0.0,0.0,65,0.00,CLR,,0.00,WeatherDisplay:10.37,2013-07-30 23:01:00,
2013-07-30 19:06:00,73.5,61.0,30.07,SW,216,0.0,0.0,65,0.00,CLR,,0.00,WeatherDisplay:10.37,2013-07-30 23:06:00,
2013-07-30 19:11:00,73.7,60.8,30.07,SW,216,0.0,0.0,64,0.00,CLR,,0.00,WeatherDisplay:10.37,2013-07-30 23:11:00,
2013-07-30 19:17:00,73.7,61.2,30.07,SW,216,0.0,0.0,65,0.00,CLR,,0.00,WeatherDisplay:10.37,2013-07-30 23:17:00,
2013-07-30 19:22:00,73.9,61.4,30.07,SW,216,0.0,0.0,65,0.00,CLR,,0.00,WeatherDisplay:10.37,2013-07-30 23:22:00,
2013-07-30 19:27:00,73.7,62.1,30.07,SW,216,0.0,0.0,67,0.00,CLR,,0.00,WeatherDisplay:10.37,2013-07-30 23:27:00,
2013-07-30 19:32:00,73.5,62.7,30.07,SW,216,0.0,0.0,69,0.00,CLR,,0.00,WeatherDisplay:10.37,2013-07-30 23:32:00,
2013-07-30 19:37:00,73.2,61.6,30.07,SW,216,0.0,0.0,67,0.00,CLR,,0.00,WeatherDisplay:10.37,2013-07-30 23:37:00,
2013-07-30 19:42:00,72.7,61.1,30.07,SW,216,0.0,0.0,67,0.00,CLR,,0.00,WeatherDisplay:10.37,2013-07-30 23:42:00,
2013-07-30 19:48:00,72.3,61.1,30.07,SW,216,0.0,0.0,68,0.00,CLR,,0.00,WeatherDisplay:10.37,2013-07-30 23:48:00,
2013-07-30 19:53:00,72.1,61.0,30.07,SW,216,0.0,0.0,68,0.00,CLR,,0.00,WeatherDisplay:10.37,2013-07-30 23:53:00,
2013-07-30 19:58:00,72.0,61.3,30.07,SW,216,0.0,0.0,69,0.00,CLR,,0.00,WeatherDisplay:10.37,2013-07-30 23:58:00,
2013-07-30 20:03:00,71.8,61.5,30.07,SW,216,0.0,0.0,70,0.00,CLR,,0.00,WeatherDisplay:10.37,2013-07-31 00:03:00,
2013-07-30 20:08:00,71.6,61.3,30.06,SW,216,0.0,0.0,70,0.00,CLR,,0.00,WeatherDisplay:10.37,2013-07-31 00:08:00,
2013-07-30 20:14:00,71.1,61.2,30.06,SW,216,0.0,0.0,71,0.00,CLR,,0.00,WeatherDisplay:10.37,2013-07-31 00:14:00,
2013-07-30 20:19:00,70.6,61.1,30.07,SW,216,0.0,0.0,72,0.00,CLR,,0.00,WeatherDisplay:10.37,2013-07-31 00:19:00,
2013-07-30 20:24:00,70.4,60.9,30.07,SW,216,0.0,0.0,72,0.00,CLR,,0.00,WeatherDisplay:10.37,2013-07-31 00:24:00,
2013-07-30 20:29:00,70.1,61.0,30.06,SW,216,0.0,0.0,73,0.00,CLR,,0.00,WeatherDisplay:10.37,2013-07-31 00:29:00,
2013-07-30 20:34:00,69.8,60.8,30.06,SW,216,0.0,0.0,73,0.00,CLR,,0.00,WeatherDisplay:10.37,2013-07-31 00:34:00,
2013-07-30 20:39:00,69.3,60.7,30.07,SW,216,0.0,0.0,74,0.00,CLR,,0.00,WeatherDisplay:10.37,2013-07-31 00:39:00,
2013-07-30 20:45:00,68.9,60.3,30.07,SW,216,0.0,0.0,74,0.00,CLR,,0.00,WeatherDisplay:10.37,2013-07-31 00:45:00,
2013-07-30 20:50:00,68.4,60.2,30.07,SW,216,0.0,0.0,75,0.00,CLR,,0.00,WeatherDisplay:10.37,2013-07-31 00:50:00,
2013-07-30 20:55:00,67.9,60.1,30.07,SW,216,0.0,0.0,76,0.00,CLR,,0.00,WeatherDisplay:10.37,2013-07-31 00:55:00,
2013-07-30 21:00:00,67.6,60.5,30.07,SW,216,0.0,0.0,78,0.00,CLR,,0.00,WeatherDisplay:10.37,2013-07-31 01:00:00,
2013-07-30 21:05:00,67.3,60.2,30.06,SW,216,0.0,0.0,78,0.00,CLR,,0.00,WeatherDisplay:10.37,2013-07-31 01:05:00,
2013-07-30 21:10:00,66.9,60.2,30.07,SW,216,0.0,0.0,79,0.00,CLR,,0.00,WeatherDisplay:10.37,2013-07-31 01:10:00,
2013-07-30 21:16:00,66.6,59.9,30.07,SW,216,0.0,0.0,79,0.00,CLR,,0.00,WeatherDisplay:10.37,2013-07-31 01:16:00,
2013-07-30 21:21:00,66.1,59.4,30.07,SW,216,0.0,0.0,79,0.00,CLR,,0.00,WeatherDisplay:10.37,2013-07-31 01:21:00,
2013-07-30 21:27:00,65.8,59.5,30.07,SW,216,0.0,0.0,80,0.00,CLR,,0.00,WeatherDisplay:10.37,2013-07-31 01:27:00,
2013-07-30 21:32:00,65.3,58.6,30.07,SW,216,0.0,0.0,79,0.00,CLR,,0.00,WeatherDisplay:10.37,2013-07-31 01:32:00,
2013-07-30 21:37:00,65.0,58.3,30.08,SW,216,0.0,0.0,79,0.00,CLR,,0.00,WeatherDisplay:10.37,2013-07-31 01:37:00,
2013-07-30 21:42:00,64.8,57.8,30.08,SW,216,0.0,0.0,78,0.00,CLR,,0.00,WeatherDisplay:10.37,2013-07-31 01:42:00,
2013-07-30 21:47:00,64.7,58.0,30.08,SW,216,0.0,0.0,79,0.00,CLR,,0.00,WeatherDisplay:10.37,2013-07-31 01:47:00,
2013-07-30 21:52:00,64.7,58.7,30.08,SW,216,0.0,0.0,81,0.00,CLR,,0.00,WeatherDisplay:10.37,2013-07-31 01:52:00,
2013-07-30 21:57:00,64.7,59.4,30.08,SW,216,0.0,0.0,83,0.00,CLR,,0.00,WeatherDisplay:10.37,2013-07-31 01:57:00,
2013-07-30 22:02:00,64.3,59.0,30.08,SW,216,0.0,0.0,83,0.00,CLR,,0.00,WeatherDisplay:10.37,2013-07-31 02:02:00,
2013-07-30 22:07:00,64.3,59.0,30.08,SW,216,0.0,0.0,83,0.00,CLR,,0.00,WeatherDisplay:10.37,2013-07-31 02:07:00,
2013-07-30 22:13:00,64.2,59.3,30.08,SW,216,0.0,0.0,84,0.00,CLR,,0.00,WeatherDisplay:10.37,2013-07-31 02:13:00,
2013-07-30 22:18:00,63.9,59.0,30.08,SW,216,0.0,0.0,84,0.00,CLR,,0.00,WeatherDisplay:10.37,2013-07-31 02:18:00,
2013-07-30 22:23:00,63.9,59.6,30.08,SW,216,0.0,0.0,86,0.00,CLR,,0.00,WeatherDisplay:10.37,2013-07-31 02:23:00,
2013-07-30 22:28:00,63.7,59.8,30.08,SW,216,0.0,0.0,87,0.00,CLR,,0.00,WeatherDisplay:10.37,2013-07-31 02:28:00,
2013-07-30 22:33:00,63.5,59.9,30.08,SW,216,0.0,0.0,88,0.00,CLR,,0.00,WeatherDisplay:10.37,2013-07-31 02:33:00,
2013-07-30 22:38:00,63.2,59.6,30.08,SW,216,0.0,0.0,88,0.00,CLR,,0.00,WeatherDisplay:10.37,2013-07-31 02:38:00,
2013-07-30 22:43:00,63.1,59.8,30.08,SW,216,0.0,0.0,89,0.00,CLR,,0.00,WeatherDisplay:10.37,2013-07-31 02:43:00,
2013-07-30 22:49:00,62.9,59.9,30.08,SW,216,0.0,0.0,90,0.00,CLR,,0.00,WeatherDisplay:10.37,2013-07-31 02:49:00,
2013-07-30 22:54:00,62.4,59.1,30.08,SW,216,0.0,0.0,89,0.00,CLR,,0.00,WeatherDisplay:10.37,2013-07-31 02:54:00,
2013-07-30 22:59:00,62.3,59.3,30.08,SW,216,0.0,0.0,90,0.00,CLR,,0.00,WeatherDisplay:10.37,2013-07-31 02:59:00,
2013-07-30 23:04:00,62.1,59.1,30.08,SW,216,0.0,0.0,90,0.00,CLR,,0.00,WeatherDisplay:10.37,2013-07-31 03:04:00,
2013-07-30 23:09:00,61.8,58.8,30.08,SW,217,0.0,0.0,90,0.00,CLR,,0.00,WeatherDisplay:10.37,2013-07-31 03:09:00,
2013-07-30 23:15:00,61.5,58.5,30.08,SW,217,0.0,0.0,90,0.00,CLR,,0.00,WeatherDisplay:10.37,2013-07-31 03:15:00,
2013-07-30 23:20:00,61.3,58.3,30.08,SW,217,0.0,0.0,90,0.00,CLR,,0.00,WeatherDisplay:10.37,2013-07-31 03:20:00,
2013-07-30 23:25:00,60.9,57.9,30.08,SW,217,0.0,0.0,90,0.00,CLR,,0.00,WeatherDisplay:10.37,2013-07-31 03:25:00,
2013-07-30 23:30:00,60.9,58.3,30.09,SW,217,0.0,0.0,91,0.00,CLR,,0.00,WeatherDisplay:10.37,2013-07-31 03:30:00,
2013-07-30 23:35:00,60.4,57.8,30.09,SW,217,0.0,0.0,91,0.00,CLR,,0.00,WeatherDisplay:10.37,2013-07-31 03:35:00,
2013-07-30 23:40:00,60.1,57.5,30.09,SW,217,0.0,0.0,91,0.00,CLR,,0.00,WeatherDisplay:10.37,2013-07-31 03:40:00,
2013-07-30 23:45:00,60.1,57.8,30.09,SW,217,0.0,0.0,92,0.00,CLR,,0.00,WeatherDisplay:10.37,2013-07-31 03:45:00,
2013-07-30 23:51:00,60.1,57.8,30.09,SW,217,0.0,0.0,92,0.00,CLR,,0.00,WeatherDisplay:10.37,2013-07-31 03:51:00,
2013-07-30 23:56:00,59.9,57.6,30.09,SW,217,0.0,0.0,92,0.00,CLR,,0.00,WeatherDisplay:10.37,2013-07-31 03:56:00,